QPF
0.00 0.01 0.05 0.07 0.12 0.13 0.09 0.03 0.00 0.00 0.00 0.00 0.00 0.00 0.00 0.01 0.05 0.08 0.03 0.01 0.02 0.02 0.02 0.01 0.03 0.03 0.03 0.04 0.04 0.05 0.04 0.04 0.05 0.04 0.05 0.05 0.05 0.07 0.08 0.10 0.07 0.07 0.07 0.07 0.07 0.06 0.07 0.06 0.06
0.01 0.03 0.06 0.08 0.14 0.12 0.05 0.01 0.01 0.00 0.00 0.00 0.01 0.02 0.01 0.01 0.01 0.01 0.01 0.02 0.02 0.02 0.02 0.01 0.01 0.02 0.02 0.03 0.04 0.04 0.04 0.04 0.05 0.05 0.04 0.04 0.04 0.06 0.10 0.08 0.06 0.07 0.07 0.07 0.05 0.06 0.07 0.06 0.07
0.01 0.03 0.06 0.10 0.12 0.07 0.04 0.01 0.01 0.00 0.00 0.00 0.01 0.01 0.01 0.02 0.01 0.01 0.03 0.03 0.02 0.02 0.01 0.01 0.01 0.02 0.02 0.03 0.04 0.04 0.04 0.05 0.06 0.05 0.04 0.04 0.05 0.09 0.12 0.08 0.06 0.06 0.06 0.06 0.05 0.05 0.06 0.08 0.08
0.01 0.03 0.05 0.10 0.06 0.01 0.01 0.00 0.00 0.00 0.00 0.01 0.00 0.01 0.01 0.01 0.01 0.01 0.02 0.02 0.02 0.02 0.01 0.01 0.01 0.02 0.01 0.01 0.03 0.04 0.05 0.06 0.06 0.05 0.05 0.05 0.07 0.10 0.10 0.08 0.08 0.07 0.07 0.05 0.04 0.05 0.06 0.08 0.09
0.02 0.05 0.10 0.08 0.03 0.00 0.00 0.00 0.00 0.00 0.01 0.03 0.01 0.02 0.03 0.02 0.01 0.01 0.01 0.01 0.01 0.01 0.02 0.01 0.01 0.02 0.01 0.01 0.02 0.03 0.04 0.04 0.05 0.05 0.05 0.05 0.07 0.08 0.09 0.09 0.09 0.10 0.10 0.07 0.08 0.08 0.11 0.12 0.10
0.05 0.07 0.09 0.06 0.03 0.01 0.00 0.00 0.00 0.00 0.00 0.01 0.01 0.02 0.04 0.02 0.01 0.01 0.00 0.00 0.00 0.01 0.02 0.02 0.01 0.02 0.01 0.02 0.02 0.02 0.03 0.04 0.05 0.05 0.05 0.05 0.08 0.09 0.11 0.10 0.10 0.10 0.10 0.11 0.11 0.13 0.16 0.13 0.11
0.06 0.08 0.08 0.06 0.05 0.04 0.01 0.00 0.00 0.00 0.01 0.01 0.01 0.01 0.03 0.02 0.01 0.00 0.00 0.00 0.00 0.01 0.02 0.03 0.03 0.02 0.02 0.02 0.03 0.03 0.03 0.03 0.05 0.05 0.05 0.06 0.07 0.08 0.11 0.11 0.12 0.13 0.15 0.16 0.15 0.14 0.11 0.09 0.07
0.04 0.10 0.10 0.06 0.05 0.04 0.01 0.00 0.00 0.00 0.01 0.01 0.01 0.03 0.04 0.02 0.01 0.00 0.00 0.00 0.01 0.01 0.03 0.03 0.04 0.04 0.06 0.04 0.01 0.02 0.02 0.02 0.03 0.04 0.05 0.05 0.08 0.09 0.10 0.11 0.14 0.16 0.19 0.19 0.15 0.11 0.09 0.08 0.06
0.03 0.17 0.13 0.06 0.04 0.03 0.01 0.00 0.00 0.00 0.01 0.00 0.01 0.02 0.05 0.01 0.00 0.00 0.01 0.02 0.03 0.03 0.03 0.03 0.04 0.03 0.06 0.04 0.01 0.02 0.02 0.02 0.03 0.05 0.07 0.08 0.15 0.19 0.15 0.13 0.14 0.15 0.18 0.18 0.15 0.10 0.08 0.07 0.07
0.04 0.13 0.08 0.03 0.02 0.03 0.01 0.00 0.00 0.01 0.01 0.01 0.01 0.02 0.01 0.00 0.00 0.00 0.02 0.03 0.02 0.02 0.02 0.02 0.03 0.02 0.03 0.03 0.03 0.03 0.05 0.05 0.07 0.08 0.08 0.14 0.21 0.23 0.20 0.16 0.14 0.12 0.11 0.12 0.13 0.10 0.08 0.08 0.09
0.02 0.03 0.02 0.01 0.02 0.02 0.03 0.01 0.00 0.01 0.01 0.01 0.01 0.01 0.00 0.00 0.00 0.01 0.02 0.01 0.01 0.00 0.01 0.01 0.02 0.02 0.02 0.03 0.05 0.03 0.05 0.06 0.06 0.07 0.09 0.12 0.10 0.12 0.14 0.13 0.10 0.10 0.10 0.12 0.13 0.16 0.14 0.12 0.11
0.01 0.01 0.01 0.00 0.01 0.02 0.02 0.01 0.00 0.00 0.01 0.00 0.00 0.00 0.00 0.01 0.01 0.01 0.01 0.01 0.01 0.01 0.01 0.01 0.02 0.02 0.02 0.02 0.03 0.03 0.04 0.04 0.04 0.06 0.06 0.07 0.06 0.06 0.08 0.11 0.11 0.11 0.12 0.13 0.15 0.16 0.18 0.17 0.13
0.00 0.01 0.00 0.00 0.01 0.01 0.02 0.01 0.00 0.00 0.00 0.00 0.00 0.00 0.00 0.00 0.01 0.01 0.01 0.03 0.02 0.01 0.00 0.01 0.02 0.02 0.02 0.02 0.03 0.02 0.02 0.02 0.02 0.04 0.07 0.06 0.05 0.06 0.08 0.10 0.12 0.09 0.09 0.10 0.12 0.12 0.16 0.20 0.19
0.00 0.00 0.00 0.00 0.00 0.00 0.01 0.01 0.01 0.01 0.00 0.00 0.00 0.00 0.00 0.01 0.02 0.01 0.01 0.05 0.08 0.04 0.02 0.02 0.02 0.02 0.02 0.02 0.04 0.04 0.03 0.03 0.03 0.05 0.06 0.07 0.06 0.07 0.07 0.08 0.09 0.08 0.08 0.09 0.09 0.07 0.09 0.13 0.15
0.00 0.01 0.01 0.00 0.00 0.00 0.01 0.02 0.01 0.01 0.00 0.00 0.00 0.00 0.00 0.00 0.01 0.01 0.01 0.07 0.14 0.08 0.03 0.02 0.03 0.02 0.03 0.03 0.05 0.07 0.05 0.05 0.05 0.05 0.06 0.06 0.06 0.06 0.06 0.06 0.06 0.06 0.06 0.06 0.07 0.06 0.06 0.07 0.10
0.01 0.02 0.02 0.01 0.00 0.01 0.02 0.03 0.01 0.02 0.01 0.00 0.00 0.00 0.00 0.00 0.01 0.01 0.01 0.02 0.05 0.05 0.02 0.01 0.02 0.02 0.02 0.02 0.07 0.15 0.10 0.11 0.09 0.04 0.03 0.03 0.03 0.03 0.04 0.04 0.03 0.05 0.05 0.05 0.05 0.06 0.06 0.06 0.08
0.01 0.03 0.02 0.01 0.00 0.01 0.02 0.03 0.02 0.02 0.01 0.00 0.00 0.00 0.00 0.00 0.01 0.01 0.00 0.00 0.00 0.01 0.01 0.02 0.04 0.02 0.02 0.03 0.05 0.05 0.06 0.05 0.04 0.03 0.02 0.02 0.02 0.02 0.02 0.03 0.04 0.04 0.04 0.04 0.04 0.05 0.05 0.05 0.06
0.02 0.01 0.01 0.01 0.00 0.01 0.01 0.01 0.02 0.01 0.01 0.00 0.00 0.00 0.00 0.00 0.00 0.00 0.00 0.00 0.00 0.00 0.00 0.01 0.02 0.02 0.02 0.02 0.02 0.03 0.03 0.03 0.03 0.03 0.02 0.02 0.02 0.02 0.03 0.03 0.03 0.03 0.03 0.05 0.05 0.05 0.05 0.05 0.06
0.01 0.01 0.00 0.00 0.00 0.00 0.01 0.01 0.01 0.01 0.01 0.01 0.00 0.00 0.00 0.00 0.00 0.00 0.00 0.00 0.00 0.00 0.00 0.01 0.01 0.01 0.02 0.03 0.03 0.03 0.03 0.03 0.03 0.03 0.02 0.02 0.02 0.02 0.02 0.03 0.04 0.04 0.03 0.04 0.04 0.06 0.06 0.04 0.04
0.00 0.01 0.01 0.00 0.00 0.00 0.00 0.00 0.00 0.00 0.00 0.00 0.01 0.00 0.00 0.01 0.01 0.01 0.00 0.00 0.00 0.00 0.00 0.01 0.01 0.01 0.02 0.03 0.03 0.03 0.03 0.03 0.03 0.02 0.02 0.01 0.01 0.01 0.01 0.03 0.03 0.03 0.04 0.04 0.04 0.05 0.05 0.03 0.04
0.00 0.01 0.01 0.00 0.00 0.00 0.00 0.01 0.00 0.00 0.00 0.00 0.00 0.01 0.01 0.00 0.01 0.01 0.01 0.01 0.00 0.01 0.01 0.01 0.01 0.02 0.03 0.04 0.04 0.04 0.05 0.04 0.04 0.03 0.02 0.01 0.01 0.01 0.02 0.03 0.03 0.04 0.03 0.05 0.06 0.05 0.04 0.04 0.05
0.01 0.01 0.00 0.00 0.00 0.01 0.01 0.02 0.02 0.01 0.01 0.00 0.00 0.00 0.01 0.00 0.01 0.01 0.01 0.01 0.01 0.01 0.01 0.01 0.01 0.02 0.02 0.03 0.04 0.04 0.04 0.03 0.04 0.05 0.05 0.04 0.04 0.04 0.03 0.03 0.03 0.04 0.04 0.04 0.04 0.04 0.05 0.06 0.05
0.00 0.00 0.00 0.00 0.00 0.01 0.02 0.02 0.02 0.01 0.02 0.01 0.00 0.00 0.01 0.00 0.00 0.01 0.01 0.01 0.01 0.01 0.01 0.01 0.01 0.01 0.02 0.03 0.04 0.04 0.03 0.04 0.05 0.05 0.06 0.06 0.05 0.04 0.05 0.05 0.06 0.05 0.05 0.04 0.03 0.04 0.04 0.06 0.05
0.00 0.00 0.00 0.01 0.01 0.04 0.04 0.02 0.03 0.01 0.01 0.00 0.00 0.00 0.00 0.00 0.00 0.01 0.01 0.01 0.00 0.01 0.01 0.01 0.01 0.01 0.02 0.02 0.02 0.03 0.03 0.04 0.06 0.06 0.09 0.09 0.08 0.06 0.06 0.07 0.07 0.05 0.05 0.04 0.03 0.03 0.03 0.04 0.04
0.00 0.00 0.02 0.06 0.08 0.06 0.03 0.02 0.03 0.01 0.01 0.02 0.02 0.01 0.00 0.00 0.00 0.00 0.01 0.01 0.01 0.01 0.01 0.01 0.02 0.03 0.02 0.02 0.01 0.02 0.03 0.05 0.06 0.07 0.09 0.08 0.08 0.08 0.07 0.06 0.06 0.06 0.04 0.03 0.03 0.03 0.03 0.03 0.04
0.00 0.00 0.02 0.04 0.05 0.04 0.02 0.02 0.03 0.03 0.02 0.01 0.02 0.00 0.00 0.00 0.00 0.00 0.00 0.00 0.01 0.02 0.01 0.01 0.03 0.03 0.04 0.03 0.03 0.03 0.04 0.06 0.08 0.07 0.06 0.06 0.06 0.06 0.07 0.06 0.05 0.03 0.03 0.03 0.04 0.03 0.03 0.03 0.03
0.00 0.00 0.00 0.00 0.01 0.03 0.03 0.03 0.03 0.03 0.02 0.02 0.01 0.00 0.00 0.00 0.00 0.00 0.00 0.00 0.00 0.01 0.01 0.01 0.02 0.04 0.06 0.07 0.06 0.05 0.05 0.05 0.06 0.06 0.05 0.05 0.04 0.05 0.05 0.04 0.04 0.04 0.04 0.04 0.05 0.03 0.03 0.04 0.02
0.00 0.00 0.00 0.00 0.02 0.03 0.03 0.04 0.03 0.02 0.02 0.03 0.05 0.01 0.00 0.00 0.00 0.00 0.00 0.01 0.00 0.00 0.00 0.01 0.01 0.04 0.05 0.06 0.07 0.06 0.06 0.06 0.07 0.06 0.08 0.07 0.04 0.04 0.03 0.03 0.03 0.05 0.04 0.04 0.05 0.04 0.03 0.03 0.03
0.00 0.00 0.00 0.00 0.00 0.01 0.03 0.04 0.01 0.01 0.02 0.06 0.04 0.01 0.00 0.00 0.00 0.00 0.00 0.00 0.01 0.01 0.01 0.01 0.01 0.03 0.03 0.04 0.04 0.06 0.07 0.06 0.06 0.05 0.05 0.05 0.05 0.04 0.03 0.03 0.03 0.04 0.04 0.04 0.04 0.04 0.03 0.03 0.04
0.00 0.00 0.00 0.00 0.00 0.00 0.01 0.03 0.02 0.02 0.04 0.06 0.03 0.00 0.00 0.00 0.00 0.00 0.00 0.00 0.00 0.00 0.01 0.02 0.02 0.03 0.04 0.05 0.06 0.06 0.06 0.06 0.07 0.06 0.06 0.05 0.05 0.05 0.04 0.03 0.03 0.03 0.03 0.04 0.04 0.04 0.03 0.04 0.05
MSLP
1004.85 1005.58 1006.40 1007.18 1007.77 1008.11 1008.15 1007.95 1007.62 1007.30 1007.10 1007.12 1007.39 1007.86 1008.46 1009.05 1009.55 1009.87 1010.00 1009.98 1009.87 1009.77 1009.74 1009.85 1010.08 1010.41 1010.75 1011.06 1011.28 1011.37 1011.36 1011.26 1011.15 1011.06 1011.02 1011.05 1011.13 1011.23 1011.33 1011.39 1011.42 1011.40 1011.37 1011.35 1011.33 1011.35 1011.39 1011.44 1011.50
1004.92 1005.78 1006.68 1007.48 1008.05 1008.32 1008.29 1008.03 1007.65 1007.29 1007.08 1007.09 1007.34 1007.76 1008.28 1008.79 1009.20 1009.45 1009.56 1009.56 1009.53 1009.54 1009.66 1009.89 1010.23 1010.61 1010.98 1011.28 1011.46 1011.53 1011.50 1011.44 1011.37 1011.34 1011.37 1011.44 1011.53 1011.62 1011.67 1011.67 1011.64 1011.58 1011.52 1011.49 1011.49 1011.53 1011.57 1011.61 1011.64
1004.94 1005.92 1006.89 1007.70 1008.24 1008.46 1008.37 1008.07 1007.66 1007.30 1007.10 1007.11 1007.34 1007.72 1008.17 1008.60 1008.92 1009.12 1009.20 1009.23 1009.27 1009.40 1009.64 1009.99 1010.42 1010.85 1011.23 1011.51 1011.66 1011.71 1011.68 1011.64 1011.62 1011.65 1011.73 1011.84 1011.94 1012.01 1012.02 1011.97 1011.88 1011.79 1011.72 1011.69 1011.71 1011.76 1011.80 1011.83 1011.82
1004.87 1005.93 1006.93 1007.75 1008.26 1008.44 1008.33 1008.01 1007.62 1007.30 1007.14 1007.19 1007.43 1007.80 1008.20 1008.55 1008.81 1008.95 1009.01 1009.07 1009.18 1009.40 1009.74 1010.19 1010.68 1011.15 1011.53 1011.78 1011.90 1011.93 1011.89 1011.87 1011.89 1011.96 1012.09 1012.22 1012.33 1012.37 1012.35 1012.26 1012.14 1012.03 1011.97 1011.95 1011.99 1012.04 1012.09 1012.08 1012.03
1004.66 1005.75 1006.77 1007.56 1008.05 1008.21 1008.10 1007.81 1007.49 1007.25 1007.19 1007.31 1007.60 1007.99 1008.37 1008.69 1008.89 1009.00 1009.05 1009.13 1009.29 1009.58 1009.99 1010.50 1011.03 1011.51 1011.87 1012.09 1012.17 1012.16 1012.12 1012.10 1012.14 1012.25 1012.39 1012.54 1012.64 1012.67 1012.62 1012.51 1012.38 1012.28 1012.22 1012.23 1012.28 1012.34 1012.37 1012.33 1012.23
1004.33 1005.41 1006.40 1007.16 1007.61 1007.77 1007.69 1007.48 1007.26 1007.15 1007.21 1007.46 1007.84 1008.28 1008.68 1008.99 1009.17 1009.25 1009.30 1009.39 1009.58 1009.91 1010.36 1010.89 1011.43 1011.89 1012.21 1012.38 1012.42 1012.38 1012.31 1012.29 1012.34 1012.45 1012.61 1012.76 1012.86 1012.88 1012.81 1012.69 1012.56 1012.47 1012.43 1012.46 1012.52 1012.58 1012.59 1012.51 1012.35
1003.96 1004.98 1005.90 1006.60 1007.02 1007.18 1007.15 1007.03 1006.94 1006.99 1007.21 1007.61 1008.10 1008.62 1009.07 1009.39 1009.58 1009.66 1009.71 1009.80 1010.00 1010.34 1010.79 1011.31 1011.82 1012.23 1012.50 1012.61 1012.60 1012.52 1012.43 1012.39 1012.43 1012.55 1012.71 1012.85 1012.94 1012.96 1012.89 1012.77 1012.65 1012.57 1012.55 1012.59 1012.65 1012.70 1012.68 1012.56 1012.36
1003.64 1004.58 1005.41 1006.03 1006.40 1006.56 1006.57 1006.55 1006.60 1006.80 1007.19 1007.73 1008.35 1008.96 1009.47 1009.83 1010.04 1010.13 1010.18 1010.27 1010.47 1010.79 1011.21 1011.69 1012.14 1012.49 1012.69 1012.74 1012.67 1012.54 1012.42 1012.37 1012.41 1012.52 1012.68 1012.82 1012.91 1012.92 1012.86 1012.75 1012.64 1012.57 1012.56 1012.60 1012.65 1012.68 1012.63 1012.48 1012.25
1003.48 1004.32 1005.04 1005.57 1005.89 1006.03 1006.08 1006.13 1006.29 1006.63 1007.16 1007.82 1008.55 1009.24 1009.81 1010.22 1010.45 1010.56 1010.62 1010.71 1010.89 1011.17 1011.56 1011.97 1012.35 1012.62 1012.75 1012.73 1012.61 1012.45 1012.31 1012.24 1012.27 1012.38 1012.54 1012.69 1012.79 1012.81 1012.76 1012.66 1012.57 1012.50 1012.49 1012.51 1012.55 1012.55 1012.47 1012.30 1012.05
1003.55 1004.29 1004.91 1005.35 1005.60 1005.71 1005.76 1005.86 1006.09 1006.52 1007.13 1007.88 1008.68 1009.43 1010.05 1010.49 1010.75 1010.88 1010.95 1011.04 1011.20 1011.45 1011.77 1012.12 1012.42 1012.62 1012.68 1012.61 1012.45 1012.25 1012.10 1012.03 1012.06 1012.18 1012.34 1012.51 1012.62 1012.67 1012.64 1012.56 1012.47 1012.41 1012.38 1012.38 1012.39 1012.35 1012.25 1012.07 1011.82
1003.86 1004.53 1005.06 1005.41 1005.58 1005.64 1005.67 1005.78 1006.03 1006.49 1007.13 1007.91 1008.73 1009.49 1010.13 1010.60 1010.88 1011.03 1011.12 1011.21 1011.36 1011.58 1011.85 1012.14 1012.38 1012.51 1012.52 1012.41 1012.22 1012.02 1011.86 1011.79 1011.83 1011.97 1012.15 1012.34 1012.48 1012.55 1012.54 1012.48 1012.40 1012.33 1012.29 1012.26 1012.23 1012.17 1012.05 1011.87 1011.64
1004.38 1004.99 1005.44 1005.70 1005.80 1005.80 1005.79 1005.87 1006.10 1006.53 1007.14 1007.89 1008.68 1009.43 1010.06 1010.53 1010.83 1011.01 1011.11 1011.21 1011.36 1011.56 1011.80 1012.04 1012.23 1012.33 1012.31 1012.18 1011.99 1011.80 1011.65 1011.60 1011.65 1011.80 1012.01 1012.21 1012.38 1012.48 1012.51 1012.47 1012.40 1012.32 1012.25 1012.19 1012.13 1012.05 1011.92 1011.75 1011.55
1005.01 1005.57 1005.95 1006.14 1006.17 1006.11 1006.05 1006.07 1006.24 1006.61 1007.15 1007.82 1008.54 1009.24 1009.83 1010.29 1010.60 1010.80 1010.94 1011.06 1011.22 1011.42 1011.65 1011.87 1012.04 1012.12 1012.10 1011.99 1011.82 1011.65 1011.53 1011.49 1011.56 1011.72 1011.93 1012.16 1012.35 1012.47 1012.52 1012.50 1012.44 1012.36 1012.28 1012.20 1012.11 1012.02 1011.89 1011.74 1011.57
1005.62 1006.13 1006.45 1006.58 1006.56 1006.45 1006.34 1006.30 1006.40 1006.68 1007.12 1007.68 1008.31 1008.92 1009.47 1009.91 1010.23 1010.46 1010.63 1010.79 1010.97 1011.18 1011.41 1011.64 1011.82 1011.92 1011.93 1011.86 1011.73 1011.60 1011.51 1011.49 1011.57 1011.73 1011.93 1012.16 1012.35 1012.49 1012.56 1012.56 1012.51 1012.43 1012.34 1012.26 1012.17 1012.07 1011.96 1011.83 1011.70
1006.09 1006.54 1006.80 1006.89 1006.83 1006.70 1006.56 1006.48 1006.51 1006.69 1007.02 1007.47 1007.99 1008.52 1009.01 1009.43 1009.76 1010.02 1010.23 1010.43 1010.64 1010.88 1011.14 1011.38 1011.59 1011.73 1011.80 1011.79 1011.73 1011.65 1011.59 1011.59 1011.66 1011.79 1011.97 1012.17 1012.35 1012.48 1012.56 1012.58 1012.55 1012.49 1012.42 1012.34 1012.27 1012.19 1012.10 1012.01 1011.91
1006.34 1006.71 1006.92 1006.98 1006.92 1006.79 1006.65 1006.54 1006.52 1006.62 1006.85 1007.19 1007.60 1008.05 1008.50 1008.90 1009.25 1009.54 1009.80 1010.04 1010.29 1010.56 1010.84 1011.12 1011.37 1011.57 1011.70 1011.77 1011.78 1011.76 1011.74 1011.75 1011.79 1011.89 1012.01 1012.16 1012.30 1012.42 1012.50 1012.54 1012.54 1012.51 1012.47 1012.43 1012.38 1012.33 1012.28 1012.23 1012.16
1006.36 1006.64 1006.80 1006.86 1006.82 1006.73 1006.61 1006.51 1006.46 1006.49 1006.63 1006.87 1007.19 1007.57 1007.97 1008.37 1008.74 1009.08 1009.38 1009.67 1009.95 1010.24 1010.54 1010.85 1011.14 1011.40 1011.61 1011.76 1011.85 1011.90 1011.91 1011.92 1011.94 1011.97 1012.03 1012.11 1012.20 1012.29 1012.36 1012.42 1012.46 1012.48 1012.49 1012.50 1012.50 1012.49 1012.48 1012.46 1012.43
1006.18 1006.37 1006.50 1006.58 1006.61 1006.58 1006.51 1006.43 1006.36 1006.34 1006.40 1006.54 1006.78 1007.10 1007.48 1007.89 1008.29 1008.67 1009.02 1009.35 1009.66 1009.96 1010.27 1010.59 1010.92 1011.23 1011.50 1011.73 1011.91 1012.02 1012.07 1012.08 1012.06 1012.04 1012.02 1012.02 1012.05 1012.10 1012.16 1012.24 1012.32 1012.41 1012.48 1012.55 1012.61 1012.66 1012.69 1012.71 1012.70
1005.89 1006.01 1006.15 1006.28 1006.39 1006.45 1006.45 1006.39 1006.30 1006.22 1006.19 1006.25 1006.41 1006.68 1007.04 1007.46 1007.90 1008.34 1008.74 1009.10 1009.43 1009.74 1010.05 1010.37 1010.70 1011.05 1011.38 1011.69 1011.94 1012.11 1012.20 1012.22 1012.17 1012.09 1012.00 1011.92 1011.88 1011.89 1011.95 1012.05 1012.18 1012.32 1012.47 1012.61 1012.73 1012.82 1012.89 1012.94 1012.95
1005.57 1005.68 1005.86 1006.08 1006.29 1006.45 1006.51 1006.46 1006.34 1006.19 1006.06 1006.01 1006.08 1006.30 1006.64 1007.09 1007.58 1008.08 1008.53 1008.94 1009.28 1009.59 1009.88 1010.18 1010.51 1010.87 1011.25 1011.61 1011.93 1012.16 1012.30 1012.33 1012.26 1012.13 1011.98 1011.84 1011.74 1011.71 1011.76 1011.89 1012.06 1012.27 1012.48 1012.67 1012.84 1012.97 1013.07 1013.14 1013.17
1005.33 1005.48 1005.75 1006.09 1006.42 1006.66 1006.76 1006.71 1006.52 1006.25 1006.00 1005.82 1005.79 1005.94 1006.27 1006.74 1007.29 1007.85 1008.37 1008.82 1009.19 1009.49 1009.75 1010.03 1010.34 1010.70 1011.10 1011.50 1011.87 1012.17 1012.35 1012.41 1012.34 1012.19 1011.99 1011.80 1011.66 1011.60 1011.64 1011.78 1011.99 1012.24 1012.49 1012.73 1012.93 1013.09 1013.20 1013.27 1013.31
1005.23 1005.47 1005.88 1006.35 1006.79 1007.10 1007.22 1007.11 1006.82 1006.40 1005.98 1005.65 1005.50 1005.58 1005.88 1006.37 1006.98 1007.61 1008.21 1008.71 1009.10 1009.40 1009.65 1009.89 1010.17 1010.52 1010.92 1011.36 1011.77 1012.12 1012.36 1012.45 1012.40 1012.24 1012.02 1011.80 1011.63 1011.55 1011.58 1011.72 1011.95 1012.22 1012.50 1012.75 1012.96 1013.11 1013.21 1013.28 1013.32
1005.26 1005.65 1006.21 1006.82 1007.36 1007.72 1007.81 1007.62 1007.18 1006.58 1005.97 1005.47 1005.18 1005.17 1005.44 1005.94 1006.60 1007.31 1007.97 1008.54 1008.96 1009.27 1009.51 1009.72 1009.98 1010.30 1010.71 1011.16 1011.61 1012.01 1012.29 1012.43 1012.41 1012.27 1012.05 1011.82 1011.63 1011.53 1011.55 1011.68 1011.90 1012.17 1012.44 1012.68 1012.87 1013.00 1013.08 1013.13 1013.18
1005.41 1005.97 1006.68 1007.42 1008.04 1008.40 1008.44 1008.12 1007.52 1006.73 1005.92 1005.23 1004.80 1004.69 1004.91 1005.42 1006.12 1006.89 1007.63 1008.25 1008.73 1009.06 1009.29 1009.49 1009.73 1010.03 1010.43 1010.89 1011.37 1011.80 1012.13 1012.32 1012.34 1012.23 1012.03 1011.80 1011.61 1011.50 1011.50 1011.61 1011.81 1012.05 1012.29 1012.49 1012.64 1012.73 1012.78 1012.81 1012.87
1005.63 1006.35 1007.20 1008.02 1008.68 1009.02 1008.98 1008.53 1007.76 1006.78 1005.78 1004.93 1004.36 1004.15 1004.32 1004.82 1005.55 1006.37 1007.16 1007.84 1008.36 1008.73 1008.97 1009.17 1009.40 1009.69 1010.08 1010.55 1011.04 1011.50 1011.86 1012.09 1012.15 1012.08 1011.91 1011.70 1011.52 1011.40 1011.39 1011.47 1011.63 1011.83 1012.02 1012.17 1012.26 1012.31 1012.32 1012.35 1012.42
1005.88 1006.71 1007.65 1008.52 1009.17 1009.46 1009.32 1008.75 1007.83 1006.71 1005.56 1004.57 1003.89 1003.60 1003.71 1004.19 1004.92 1005.76 1006.59 1007.32 1007.88 1008.28 1008.55 1008.76 1008.99 1009.29 1009.67 1010.13 1010.63 1011.10 1011.49 1011.75 1011.85 1011.82 1011.68 1011.50 1011.33 1011.22 1011.20 1011.26 1011.38 1011.53 1011.67 1011.76 1011.81 1011.81 1011.79 1011.81 1011.91
1006.10 1007.00 1007.95 1008.81 1009.41 1009.63 1009.40 1008.73 1007.72 1006.49 1005.26 1004.19 1003.44 1003.09 1003.15 1003.59 1004.30 1005.14 1005.98 1006.73 1007.32 1007.75 1008.06 1008.30 1008.55 1008.85 1009.23 1009.69 1010.18 1010.65 1011.05 1011.32 1011.45 1011.45 1011.36 1011.21 1011.08 1010.98 1010.96 1011.01 1011.10 1011.21 1011.30 1011.35 1011.35 1011.32 1011.29 1011.32 1011.43
1006.30 1007.17 1008.07 1008.85 1009.36 1009.48 1009.18 1008.45 1007.40 1006.16 1004.91 1003.83 1003.06 1002.69 1002.72 1003.11 1003.77 1004.57 1005.39 1006.14 1006.75 1007.21 1007.56 1007.84 1008.12 1008.44 1008.83 1009.28 1009.76 1010.21 1010.60 1010.87 1011.01 1011.04 1010.98 1010.88 1010.78 1010.72 1010.72 1010.77 1010.86 1010.95 1011.01 1011.04 1011.01 1010.96 1010.93 1010.96 1011.10
1006.47 1007.23 1008.00 1008.63 1009.00 1009.03 1008.66 1007.92 1006.89 1005.71 1004.54 1003.52 1002.80 1002.43 1002.44 1002.79 1003.39 1004.13 1004.90 1005.62 1006.23 1006.72 1007.11 1007.45 1007.77 1008.13 1008.53 1008.97 1009.42 1009.84 1010.20 1010.45 1010.60 1010.64 1010.61 1010.56 1010.51 1010.50 1010.54 1010.62 1010.72 1010.82 1010.89 1010.90 1010.88 1010.83 1010.81 1010.85 1011.00
1006.61 1007.20 1007.76 1008.19 1008.39 1008.30 1007.89 1007.17 1006.23 1005.17 1004.14 1003.26 1002.63 1002.32 1002.33 1002.63 1003.16 1003.82 1004.53 1005.20 1005.80 1006.31 1006.75 1007.14 1007.52 1007.92 1008.34 1008.78 1009.21 1009.59 1009.90 1010.13 1010.25 1010.30 1010.31 1010.29 1010.30 1010.35 1010.45 1010.58 1010.73 1010.86 1010.94 1010.98 1010.97 1010.95 1010.93 1010.99 1011.15
Thickness
5831 5832 5832 5824 5806 5800 5801 5819 5830 5829 5831 5840 5841 5834 5821 5812 5802 5789 5816 5827 5823 5816 5811 5806 5804 5802 5802 5801 5800 5799 5798 5797 5796 5794 5793 5792 5791 5790 5789 5788 5787 5786 5785 5783 5782 5781 5780 5779 5778
5840 5840 5830 5818 5802 5795 5804 5825 5828 5831 5840 5845 5841 5835 5823 5815 5821 5818 5821 5826 5825 5819 5813 5807 5804 5802 5801 5800 5799 5798 5797 5796 5795 5793 5793 5791 5790 5789 5788 5787 5786 5785 5784 5783 5781 5780 5779 5778 5778
5843 5843 5824 5816 5809 5805 5810 5831 5835 5842 5849 5845 5836 5833 5822 5815 5821 5822 5826 5830 5827 5820 5814 5807 5804 5802 5801 5799 5798 5797 5796 5795 5794 5793 5792 5791 5790 5788 5787 5786 5785 5784 5783 5782 5781 5779 5778 5778 5777
5844 5838 5829 5817 5812 5828 5833 5839 5844 5842 5844 5846 5837 5823 5823 5831 5830 5830 5833 5833 5827 5821 5815 5807 5804 5802 5801 5799 5798 5797 5795 5794 5793 5792 5791 5790 5789 5788 5786 5785 5784 5783 5782 5781 5780 5779 5778 5777 5776
5846 5831 5819 5815 5824 5839 5849 5852 5851 5841 5838 5840 5834 5816 5813 5831 5838 5836 5835 5833 5827 5822 5816 5809 5805 5802 5800 5799 5798 5797 5795 5794 5793 5792 5791 5790 5789 5787 5786 5785 5784 5782 5781 5780 5779 5778 5777 5776 5775
5833 5827 5813 5813 5827 5842 5851 5857 5853 5843 5839 5839 5832 5817 5814 5832 5834 5835 5836 5833 5830 5824 5817 5810 5806 5803 5801 5799 5798 5796 5795 5794 5792 5791 5790 5789 5788 5787 5786 5784 5783 5782 5781 5780 5778 5777 5776 5776 5775
5832 5825 5817 5826 5827 5835 5849 5860 5852 5844 5838 5840 5840 5820 5817 5829 5835 5838 5836 5834 5831 5827 5820 5813 5809 5805 5802 5799 5797 5796 5795 5793 5792 5791 5790 5789 5788 5786 5785 5784 5783 5782 5781 5780 5778 5777 5777 5776 5775
5851 5834 5825 5831 5828 5832 5854 5860 5858 5849 5842 5853 5848 5823 5815 5829 5839 5838 5835 5832 5830 5827 5822 5817 5813 5809 5805 5801 5798 5797 5795 5794 5793 5791 5790 5789 5788 5787 5786 5784 5783 5782 5781 5780 5778 5777 5777 5776 5775
5862 5828 5819 5832 5835 5840 5856 5854 5858 5862 5852 5850 5850 5842 5837 5841 5841 5834 5829 5826 5825 5824 5822 5820 5816 5812 5809 5806 5802 5799 5796 5795 5793 5792 5791 5790 5789 5788 5787 5785 5784 5782 5781 5780 5779 5777 5777 5776 5775
5853 5826 5832 5855 5859 5854 5857 5855 5856 5852 5842 5840 5840 5843 5845 5842 5836 5830 5824 5821 5820 5820 5821 5821 5818 5816 5813 5811 5805 5802 5800 5797 5795 5794 5793 5792 5791 5790 5789 5786 5784 5783 5781 5780 5779 5778 5777 5776 5776
5859 5845 5857 5866 5871 5867 5858 5857 5862 5849 5834 5838 5836 5837 5841 5838 5834 5831 5827 5825 5823 5823 5822 5822 5820 5818 5816 5813 5809 5806 5803 5800 5798 5795 5794 5793 5792 5791 5789 5786 5784 5783 5782 5781 5780 5779 5779 5779 5779
5862 5865 5870 5871 5875 5869 5861 5859 5856 5851 5846 5855 5852 5847 5842 5836 5834 5832 5829 5828 5827 5824 5822 5823 5822 5818 5816 5814 5812 5809 5806 5803 5800 5797 5795 5794 5792 5791 5790 5788 5787 5785 5784 5782 5781 5781 5782 5781 5780
5863 5865 5873 5877 5876 5872 5868 5860 5856 5854 5860 5862 5857 5850 5843 5840 5838 5837 5836 5833 5829 5825 5823 5823 5822 5818 5816 5813 5812 5810 5808 5805 5802 5798 5796 5795 5793 5791 5790 5788 5787 5787 5785 5783 5781 5781 5781 5781 5780
5867 5868 5870 5874 5874 5873 5863 5860 5857 5855 5864 5859 5852 5847 5845 5842 5839 5837 5835 5831 5828 5825 5824 5824 5821 5818 5815 5812 5811 5810 5809 5806 5804 5800 5796 5794 5793 5791 5790 5788 5787 5786 5785 5784 5782 5781 5780 5779 5779
5874 5860 5859 5868 5873 5872 5864 5845 5850 5861 5864 5856 5851 5848 5845 5844 5841 5837 5836 5833 5830 5827 5826 5824 5821 5818 5814 5813 5811 5810 5809 5807 5803 5800 5797 5794 5792 5791 5789 5787 5786 5785 5785 5783 5782 5781 5779 5778 5777
5860 5847 5837 5859 5872 5873 5854 5828 5853 5866 5860 5852 5852 5849 5845 5843 5842 5840 5839 5835 5833 5829 5825 5823 5823 5818 5814 5812 5810 5810 5808 5805 5802 5800 5797 5794 5792 5790 5789 5787 5785 5785 5784 5782 5780 5778 5776 5775 5774
5838 5829 5833 5851 5872 5870 5855 5838 5856 5868 5860 5851 5850 5849 5846 5842 5841 5841 5840 5837 5834 5830 5826 5822 5820 5817 5815 5812 5810 5809 5807 5805 5803 5800 5797 5794 5792 5790 5788 5786 5785 5785 5783 5781 5779 5776 5774 5772 5772
5827 5835 5838 5844 5865 5864 5852 5849 5858 5866 5862 5855 5852 5850 5846 5842 5841 5843 5842 5840 5836 5832 5828 5823 5820 5817 5815 5813 5810 5807 5805 5804 5802 5799 5796 5794 5792 5789 5787 5786 5784 5783 5780 5777 5775 5772 5772 5770 5770
5848 5843 5840 5854 5873 5863 5852 5852 5856 5865 5862 5857 5853 5851 5847 5845 5847 5847 5844 5841 5836 5831 5827 5823 5819 5817 5814 5810 5807 5803 5801 5801 5800 5798 5795 5793 5791 5789 5786 5784 5782 5780 5777 5774 5773 5770 5768 5767 5768
5850 5842 5844 5854 5871 5864 5853 5852 5859 5864 5861 5861 5856 5852 5851 5847 5846 5844 5842 5840 5835 5831 5827 5823 5819 5817 5814 5811 5808 5806 5803 5801 5799 5797 5794 5792 5789 5787 5785 5781 5779 5777 5774 5771 5770 5768 5764 5764 5766
5847 5845 5846 5846 5859 5864 5851 5839 5848 5858 5864 5863 5862 5860 5857 5851 5845 5842 5841 5839 5836 5831 5828 5825 5820 5817 5814 5812 5809 5806 5802 5799 5797 5793 5791 5790 5788 5785 5782 5780 5777 5775 5773 5769 5767 5766 5762 5759 5761
5837 5856 5856 5852 5842 5834 5841 5814 5834 5850 5851 5855 5857 5858 5856 5854 5851 5846 5842 5839 5837 5834 5832 5827 5822 5818 5815 5812 5808 5802 5797 5792 5792 5791 5790 5787 5785 5782 5779 5777 5774 5772 5770 5767 5765 5764 5761 5758 5755
5850 5863 5855 5847 5838 5829 5833 5818 5827 5848 5841 5848 5855 5857 5857 5855 5852 5848 5845 5841 5840 5837 5833 5827 5822 5817 5814 5811 5807 5801 5798 5795 5794 5792 5788 5785 5782 5780 5776 5773 5771 5768 5766 5764 5762 5761 5758 5756 5752
5864 5856 5847 5841 5828 5802 5820 5814 5816 5841 5845 5850 5854 5856 5856 5856 5854 5850 5847 5843 5839 5837 5833 5827 5820 5815 5813 5810 5806 5801 5797 5794 5790 5787 5784 5781 5779 5777 5773 5771 5767 5764 5762 5760 5759 5757 5755 5752 5750
5854 5831 5804 5792 5790 5796 5828 5823 5823 5848 5859 5858 5853 5853 5857 5856 5852 5847 5843 5839 5836 5833 5830 5826 5819 5813 5811 5808 5805 5801 5797 5793 5788 5785 5781 5778 5775 5772 5768 5767 5763 5761 5759 5757 5756 5753 5750 5748 5745
5844 5834 5802 5783 5787 5804 5822 5817 5833 5859 5862 5863 5861 5859 5856 5853 5851 5847 5843 5838 5835 5832 5828 5824 5818 5812 5809 5805 5802 5799 5795 5792 5788 5784 5781 5777 5773 5770 5767 5763 5761 5758 5756 5755 5752 5749 5747 5745 5743
5838 5837 5846 5825 5813 5800 5809 5823 5834 5850 5853 5856 5857 5855 5850 5849 5847 5844 5842 5838 5834 5830 5827 5823 5817 5811 5807 5804 5800 5796 5793 5789 5785 5782 5779 5774 5771 5768 5764 5761 5757 5755 5753 5750 5747 5744 5742 5740 5738
5853 5847 5837 5821 5793 5785 5797 5804 5812 5827 5838 5846 5845 5845 5846 5847 5844 5842 5840 5837 5833 5830 5827 5823 5817 5811 5807 5803 5799 5794 5790 5786 5782 5778 5774 5771 5767 5764 5761 5757 5755 5752 5750 5746 5743 5740 5738 5734 5732
5840 5836 5833 5826 5819 5795 5781 5793 5834 5834 5836 5837 5842 5843 5843 5844 5842 5839 5837 5835 5831 5828 5824 5819 5814 5809 5804 5800 5796 5792 5787 5783 5779 5774 5771 5767 5764 5760 5757 5754 5750 5747 5745 5742 5738 5735 5733 5729 5726
5846 5838 5832 5812 5806 5811 5798 5799 5845 5843 5841 5838 5838 5840 5841 5840 5838 5836 5833 5829 5826 5822 5818 5814 5810 5805 5801 5798 5793 5788 5784 5780 5775 5771 5768 5764 5760 5757 5753 5750 5746 5743 5740 5737 5733 5729 5727 5724 5721